Location: Carrières
(48.9495°N, 2.0407°E)
Time: 19:22:32
(UTC+00:00)

Altair - Pass Details

Date: 26 April 2024
Orbit: 1502 x 1682 km, 47.2° (Epoch: 21 May)

Event Time Altitude Azimuth Distance (km) Brightness Sun altitude
Rises 23:10:49 0° 289° (WNW) 4,870 10.5 -26.6°
Reaches altitude 10° 23:14:13 10° 283° (WNW) 3,857 9.8 -26.6°
Maximum altitude 23:23:02 40° 219° (SW) 2,194 7.9 -26.9°
Enters shadow 23:23:43 39° 209° (SSW) 2,203 7.9 -26.9°
